Charlevoix, MI

8:59 AM EDT on June 24, 2017 (GMT -0400)
Charlevoix Municipal

Weather History for KCVX - February, 2013

Change the Weather History Date:

Saturday, February 9, 2013

  Actual Average Record
Temperature  
Mean Temperature 12 °F -  
Max Temperature 29 °F 34 °F 41 °F (2002)
Min Temperature -6 °F 21 °F -6 °F (2013)
Degree Days  
Heating Degree Days 54    
Moisture  
Dew Point 5 °F    
Average Humidity 73    
Maximum Humidity 89    
Minimum Humidity 51    
Precipitation  
Precipitation 0.00 in - - ()
Sea Level Pressure  
Sea Level Pressure 30.33 in    
Wind  
Wind Speed 4 mph (SE)    
Max Wind Speed 9 mph    
Max Gust Speed -    
Visibility 10 miles    
Events      
Averages and records for this station are not official NWS values.
T = Trace of Precipitation, MM = Missing Value Source: NWS Daily Summary

Daily Weather History Graph

Daily Weather History Graph

Search for Another Location

Airport or City:

Trip Planner

Search our weather history database for the weather conditions in past years. The results will help you decide how hot, cold, wet, or windy it might be!

Date:

Astronomy

Feb. 09, 2013 Rise Set
Actual Time 7:50 AM EST 6:00 PM EST
Civil Twilight 7:20 AM EST 6:31 PM EST
Nautical Twilight 6:45 AM EST 7:05 PM EST
Astronomical Twilight 6:11 AM EST 7:40 PM EST
Moon 7:01 AM EST (2/9) 5:43 PM EST (2/9)
Length of Visible Light 11h 10m
Length of Day
10h 09m
Waning Crescent, 0% of the Moon is Illuminated
Feb 9
Waning Crescent
Feb 10
New
Feb 17
First Quarter
Feb 25
Full
Mar 4
Last Quarter

Hourly Weather History & Observations

Time (EST) Temp. Windchill Dew Point Humidity Pressure Visibility Wind Dir Wind Speed Gust Speed Precip Events Conditions
12:14 AM 3.4 °F -4.0 °F 0.5 °F 88% 30.39 in 10.0 mi ESE 3.5 mph - N/A   Clear
12:35 AM 2.1 °F - -0.9 °F 87% 30.39 in 10.0 mi Calm Calm - N/A   Clear
12:54 AM 1.9 °F - -1.3 °F 86% 30.40 in 10.0 mi Calm Calm - N/A   Clear
1:15 AM 0.5 °F - -2.7 °F 86% 30.40 in 10.0 mi Calm Calm - N/A   Clear
1:34 AM -1.8 °F - -5.1 °F 86% 30.41 in 10.0 mi Calm Calm - N/A   Clear
1:55 AM -0.4 °F -8.3 °F -3.8 °F 85% 30.40 in 10.0 mi ESE 3.5 mph - N/A   Clear
2:14 AM -2.2 °F - -5.8 °F 85% 30.40 in 10.0 mi Calm Calm - N/A   Clear
2:35 AM -3.1 °F - -6.5 °F 85% 30.40 in 10.0 mi Calm Calm - N/A   Clear
2:54 AM -3.5 °F - -7.4 °F 83% 30.41 in 10.0 mi Calm Calm - N/A   Clear
3:15 AM -4.0 °F -14.6 °F -7.6 °F 85% 30.40 in 10.0 mi ESE 4.6 mph - N/A   Clear
3:34 AM -3.1 °F -13.5 °F -6.7 °F 85% 30.40 in 10.0 mi ESE 4.6 mph - N/A   Clear
3:54 AM -4.0 °F -12.4 °F -8.0 °F 83% 30.40 in 10.0 mi ESE 3.5 mph - N/A   Clear
4:14 AM -4.5 °F -13.0 °F -8.1 °F 84% 30.40 in 10.0 mi ESE 3.5 mph - N/A   Clear
4:34 AM -4.0 °F -12.4 °F -7.8 °F 84% 30.40 in 10.0 mi ESE 3.5 mph - N/A   Clear
4:55 AM -4.2 °F -12.6 °F -8.0 °F 84% 30.40 in 10.0 mi ESE 3.5 mph - N/A   Clear
5:14 AM -5.1 °F -13.6 °F -9.0 °F 83% 30.39 in 10.0 mi ESE 3.5 mph - N/A   Clear
5:35 AM -4.7 °F -13.2 °F -8.5 °F 84% 30.41 in 10.0 mi SE 3.5 mph - N/A   Clear
5:54 AM -4.5 °F -13.0 °F -8.5 °F 83% 30.41 in 10.0 mi ESE 3.5 mph - N/A   Clear
6:14 AM -4.2 °F -12.6 °F -8.0 °F 84% 30.40 in 10.0 mi East 3.5 mph - N/A   Clear
6:35 AM -6.0 °F -14.7 °F -10.1 °F 82% 30.40 in 10.0 mi SE 3.5 mph - N/A   Clear
6:54 AM -4.5 °F -15.2 °F -8.3 °F 84% 30.40 in 10.0 mi ESE 4.6 mph - N/A   Clear
7:15 AM -4.5 °F -13.0 °F -8.5 °F 83% 30.40 in 10.0 mi ESE 3.5 mph - N/A   Clear
7:35 AM -3.6 °F -12.0 °F -7.4 °F 84% 30.40 in 10.0 mi ESE 3.5 mph - N/A   Clear
7:55 AM -5.4 °F -16.2 °F -9.4 °F 83% 30.40 in 10.0 mi ESE 4.6 mph - N/A   Clear
8:14 AM -4.7 °F -13.2 °F -8.5 °F 84% 30.41 in 7.0 mi ESE 3.5 mph - N/A   Clear
8:35 AM -2.2 °F -10.4 °F -5.6 °F 85% 30.40 in 7.0 mi SE 3.5 mph - N/A   Clear
8:54 AM -0.4 °F -8.3 °F -3.8 °F 85% 30.40 in 10.0 mi ESE 3.5 mph - N/A   Clear
9:15 AM 1.4 °F -6.2 °F -2.2 °F 85% 30.40 in 10.0 mi SE 3.5 mph - N/A   Clear
9:35 AM 1.6 °F -8.0 °F -2.0 °F 85% 30.40 in 10.0 mi SE 4.6 mph - N/A   Clear
9:54 AM 4.6 °F -6.0 °F 1.4 °F 86% 30.39 in 10.0 mi ESE 5.8 mph - N/A   Clear
10:15 AM 5.9 °F -3.0 °F 3.0 °F 88% 30.39 in 10.0 mi ESE 4.6 mph - N/A   Clear
10:35 AM 7.3 °F -1.3 °F 4.5 °F 88% 30.39 in 10.0 mi ESE 4.6 mph - N/A   Clear
10:54 AM 10.2 °F 2.0 °F 7.5 °F 89% 30.38 in 10.0 mi ESE 4.6 mph - N/A   Clear
11:15 AM 12.4 °F 4.6 °F 8.6 °F 85% 30.38 in 10.0 mi East 4.6 mph - N/A   Clear
11:35 AM 16.3 °F 6.7 °F 11.7 °F 82% 30.37 in 10.0 mi SSE 6.9 mph - N/A   Clear
11:54 AM 19.2 °F 10.2 °F 12.2 °F 74% 30.37 in 10.0 mi SSE 6.9 mph - N/A   Clear
12:15 PM 21.2 °F 11.7 °F 13.1 °F 71% 30.36 in 10.0 mi SSE 8.1 mph - N/A   Clear
12:34 PM 21.9 °F 13.4 °F 13.6 °F 70% 30.34 in 10.0 mi South 6.9 mph - N/A   Clear
12:55 PM 23.2 °F 15.0 °F 14.0 °F 68% 30.33 in 10.0 mi SSE 6.9 mph - N/A   Clear
1:15 PM 24.6 °F 16.7 °F 14.0 °F 64% 30.33 in 10.0 mi SSE 6.9 mph - N/A   Clear
1:35 PM 25.0 °F 18.1 °F 13.1 °F 61% 30.32 in 10.0 mi South 5.8 mph - N/A   Clear
1:55 PM 25.3 °F 19.7 °F 13.3 °F 60% 30.32 in 10.0 mi South 4.6 mph - N/A   Clear
2:14 PM 26.1 °F 21.9 °F 12.6 °F 57% 30.32 in 10.0 mi South 3.5 mph - N/A   Clear
2:35 PM 25.7 °F - 14.7 °F 63% 30.30 in 10.0 mi Calm Calm - N/A   Clear
2:55 PM 25.5 °F - 14.0 °F 62% 30.30 in 10.0 mi Calm Calm - N/A   Clear
3:14 PM 26.2 °F 22.1 °F 14.5 °F 61% 30.29 in 10.0 mi SE 3.5 mph - N/A   Clear
3:35 PM 28.4 °F 22.2 °F 12.2 °F 51% 30.28 in 10.0 mi South 5.8 mph - N/A   Clear
3:55 PM 28.4 °F 23.3 °F 12.6 °F 52% 30.28 in 10.0 mi South 4.6 mph - N/A   Clear
4:15 PM 28.8 °F 25.0 °F 13.3 °F 52% 30.27 in 10.0 mi SSE 3.5 mph - N/A   Clear
4:35 PM 28.8 °F - 14.0 °F 54% 30.27 in 10.0 mi Calm Calm - N/A   Clear
4:54 PM 29.3 °F 25.6 °F 14.0 °F 53% 30.26 in 10.0 mi South 3.5 mph - N/A   Clear
5:15 PM 29.5 °F 25.9 °F 13.6 °F 52% 30.25 in 10.0 mi SSE 3.5 mph - N/A   Clear
5:35 PM 28.9 °F 22.8 °F 13.1 °F 52% 30.24 in 10.0 mi SSE 5.8 mph - N/A   Clear
5:54 PM 27.9 °F 22.6 °F 12.9 °F 54% 30.24 in 10.0 mi SSE 4.6 mph - N/A   Clear
6:15 PM 27.5 °F 23.6 °F 13.1 °F 55% 30.24 in 10.0 mi SSE 3.5 mph - N/A   Clear
6:35 PM 26.4 °F 22.4 °F 13.5 °F 58% 30.25 in 10.0 mi SSE 3.5 mph - N/A   Clear
6:54 PM 25.5 °F 19.9 °F 13.1 °F 59% 30.25 in 10.0 mi SSE 4.6 mph - N/A   Scattered Clouds
7:15 PM 24.1 °F 18.2 °F 12.7 °F 62% 30.24 in 10.0 mi SSE 4.6 mph - N/A   Overcast
7:34 PM 25.0 °F 19.3 °F 12.7 °F 60% 30.24 in 10.0 mi SSE 4.6 mph - N/A   Overcast
7:55 PM 25.2 °F 17.3 °F 12.4 °F 58% 30.23 in 10.0 mi SSE 6.9 mph - N/A   Scattered Clouds
8:34 PM 23.9 °F 14.2 °F 13.3 °F 64% 30.22 in 10.0 mi SE 9.2 mph - N/A   Clear
8:55 PM 23.7 °F 14.7 °F 13.6 °F 65% 30.22 in 10.0 mi SSE 8.1 mph - N/A   Clear
9:14 PM 23.9 °F 15.0 °F 13.8 °F 65% 30.22 in 10.0 mi SSE 8.1 mph - N/A   Clear
9:35 PM 23.7 °F 14.7 °F 14.2 °F 67% 30.22 in 10.0 mi SSE 8.1 mph - N/A   Scattered Clouds
9:55 PM 23.5 °F 14.5 °F 14.9 °F 70% 30.22 in 10.0 mi SSE 8.1 mph - N/A   Mostly Cloudy
10:14 PM 23.9 °F 15.0 °F 15.6 °F 71% 30.21 in 10.0 mi South 8.1 mph - N/A   Overcast
10:35 PM 24.1 °F 15.2 °F 16.0 °F 71% 30.21 in 10.0 mi SSE 8.1 mph - N/A   Overcast
10:55 PM 24.3 °F 16.3 °F 16.0 °F 71% 30.20 in 10.0 mi SSE 6.9 mph - N/A   Overcast
11:14 PM 23.9 °F 15.8 °F 16.0 °F 72% 30.20 in 10.0 mi South 6.9 mph - N/A   Overcast
11:35 PM 23.9 °F 15.0 °F 15.6 °F 71% 30.20 in 10.0 mi South 8.1 mph - N/A   Overcast
11:54 PM 23.5 °F 14.5 °F 15.4 °F 71% 30.19 in 10.0 mi SSE 8.1 mph - N/A   Overcast